TimeEDT,TemperatureF,Dew PointF,Humidity,Sea Level PressureIn,VisibilityMPH,Wind Direction,Wind SpeedMPH,Gust SpeedMPH,PrecipitationIn,Events,Conditions,WindDirDegrees,DateUTC
12:11 AM,42.4,42.4,100,29.51,10.0,Calm,Calm,-,N/A,,Overcast,0,2012-10-31 04:11:00
12:33 AM,42.3,42.3,100,29.51,10.0,Calm,Calm,-,N/A,,Mostly Cloudy,0,2012-10-31 04:33:00
12:54 AM,42.3,42.3,100,29.52,10.0,SW,3.5,-,N/A,,Scattered Clouds,230,2012-10-31 04:54:00
1:15 AM,42.4,42.4,100,29.52,10.0,Calm,Calm,-,N/A,,Mostly Cloudy,0,2012-10-31 05:15:00
1:37 AM,42.4,42.4,100,29.52,10.0,Calm,Calm,-,N/A,,Overcast,0,2012-10-31 05:37:00
1:58 AM,42.4,42.4,100,29.52,10.0,Calm,Calm,-,N/A,,Overcast,0,2012-10-31 05:58:00
2:19 AM,42.3,42.3,100,29.53,10.0,Calm,Calm,-,N/A,,Mostly Cloudy,0,2012-10-31 06:19:00
4:05 AM,41.2,41.2,100,29.54,10.0,Calm,Calm,-,N/A,,Clear,0,2012-10-31 08:05:00
4:27 AM,41.0,41.0,100,29.55,10.0,Calm,Calm,-,N/A,,Clear,0,2012-10-31 08:27:00
4:48 AM,40.6,40.6,100,29.55,10.0,Calm,Calm,-,N/A,,Clear,0,2012-10-31 08:48:00
5:09 AM,40.5,40.5,100,29.56,10.0,Calm,Calm,-,N/A,,Mostly Cloudy,0,2012-10-31 09:09:00
5:30 AM,41.2,41.2,100,29.56,10.0,Calm,Calm,-,N/A,,Overcast,0,2012-10-31 09:30:00
5:50 AM,41.0,41.0,100,29.57,10.0,Calm,Calm,-,N/A,,Overcast,0,2012-10-31 09:50:00
5:52 AM,41.9,41.9,100,29.57,10.0,Calm,Calm,-,N/A,,Overcast,0,2012-10-31 09:52:00
6:13 AM,41.9,41.9,100,29.57,10.0,South,3.5,-,N/A,,Overcast,180,2012-10-31 10:13:00
6:14 AM,41.9,41.9,100,29.57,10.0,South,3.5,-,N/A,,Overcast,190,2012-10-31 10:14:00
6:50 AM,42.8,42.8,100,29.58,10.0,SSW,3.5,-,N/A,,Overcast,200,2012-10-31 10:50:00
7:50 AM,44.6,44.6,100,29.59,10.0,South,4.6,-,N/A,,Overcast,180,2012-10-31 11:50:00
8:50 AM,44.6,44.6,100,29.61,10.0,SSW,5.8,-,N/A,,Mostly Cloudy,200,2012-10-31 12:50:00
9:50 AM,48.2,44.6,87,29.62,10.0,SSW,6.9,-,N/A,,Overcast,200,2012-10-31 13:50:00
10:53 AM,48.2,42.8,82,29.63,10.0,SW,11.5,-,N/A,,Overcast,220,2012-10-31 14:53:00
11:53 AM,53.6,44.6,72,29.61,10.0,WSW,6.9,-,N/A,,Mostly Cloudy,250,2012-10-31 15:53:00
12:53 PM,53.6,41.0,62,29.60,10.0,West,6.9,-,N/A,,Mostly Cloudy,260,2012-10-31 16:53:00
1:53 PM,53.6,41.0,62,29.60,10.0,SW,5.8,-,N/A,,Overcast,230,2012-10-31 17:53:00
2:52 PM,53.6,39.2,58,29.60,10.0,SW,6.9,-,N/A,,Overcast,230,2012-10-31 18:52:00
3:54 PM,53.6,41.0,62,29.61,10.0,WSW,5.8,-,N/A,,Overcast,250,2012-10-31 19:54:00
4:47 PM,51.8,41.0,67,29.62,10.0,WSW,5.8,-,N/A,,Overcast,240,2012-10-31 20:47:00
5:45 PM,50.0,41.0,71,29.64,10.0,SW,5.8,-,N/A,,Overcast,230,2012-10-31 21:45:00
6:45 PM,48.2,41.0,76,29.65,10.0,West,4.6,-,N/A,,Overcast,260,2012-10-31 22:45:00
7:51 PM,48.2,41.0,76,29.66,10.0,Calm,Calm,-,N/A,,Overcast,0,2012-10-31 23:51:00
8:54 PM,48.2,42.8,82,29.67,10.0,Calm,Calm,-,N/A,,Overcast,0,2012-11-01 00:54:00
10:28 PM,49.6,41.9,75,29.68,10.0,WNW,3.5,-,N/A,,Overcast,290,2012-11-01 02:28:00
11:32 PM,49.1,40.1,71,29.68,10.0,NW,4.6,-,N/A,,Overcast,320,2012-11-01 03:32:00
11:53 PM,47.7,38.8,71,29.68,10.0,WNW,3.5,-,N/A,,Scattered Clouds,300,2012-11-01 03:53:00